Regional Weather Roundup
Issued by NWS Charleston, SC

Current Version | Previous Version | Text Only | Print | Product List | Glossary Off
Versions: 1 2 3 4 5 6 7 8 9 10 11 12 13 14 15 16 17 18 19 20 21 22 23 24 25 26 27 28 29 30 31 32 33 34 35 36 37 38 39 40 41 42 43 44 45 46 47 48 49 50

000
ASUS42 KCHS 010825
RWRCHS

REGIONAL WEATHER ROUNDUP
NATIONAL WEATHER SERVICE CHARLESTON SC
400 AM EDT SAT NOV 01 2014

NOTE: "FAIR" INDICATES FEW OR NO CLOUDS BELOW 12,000 FEET WITH NO
SIGNIFICANT WEATHER AND/OR OBSTRUCTIONS TO VISIBILITY.

NOT ALL STATIONS ARE QUALITY CONTROLLED BY THE NATIONAL
WEATHER SERVICE. USE DATA WITH CAUTION...ESPECIALLY
DEWPOINT OBSERVATIONS.

SCZ027-030-031-034>040-042>050-010900-
...SOUTH CAROLINA...

CITY           SKY/WX    TMP DP  RH WIND       PRES   REMARKS
N CHARLESTON   PTCLDY    52  46  80 W10       29.72F
WATERFRONT PRK   N/A     55 N/A N/A W9G17       N/A
FORT JOHNSON   NOT AVBL
JOHNS ISLAND   SUNNY     54  48  82 W12G20    29.73S
PINOPOLIS      NOT AVBL
MONCKS CORNER  FAIR      52  52 100 W3        29.71F
SUMMERVILLE    FAIR      48  48 100 SW6       29.73F
BEAUFORT MCAS    N/A    N/A N/A N/A MISG      29.76F
BEAUFORT ARPT  FAIR      54  46  76 W14G21    29.76F
HILTON HEAD IS NOT AVBL
GEORGETOWN     NOT AVBL
WALTERBORO     CLOUDY    52  50  93 W8        29.74F
ORANGEBURG     MOCLDY    51  43  74 W7        29.72F
BARNWELL       PTSUNNY   52  39  62 W16G24    29.76S
AIKEN          LGT RAIN  46  37  71 W12       29.78S
MANNING        NOT AVBL
KINGSTREE      NOT AVBL
COLUMBIA       LGT RAIN  51  48  89 W7        29.70F
SUMTER         CLOUDY    50  48  93 NW8       29.67S
FLORENCE       CLOUDY    51  49  92 NE3       29.68F
MYRTLE BEACH   PTCLDY    50  46  87 W5        29.67F
N MYRTLE BEACH PTCLDY    51  48  89 CALM      29.67F

$$

GAZ063-065-086>088-099>101-113>116-118-119-134-136>141-150-010900-
...GEORGIA...

CITY           SKY/WX    TMP DP  RH WIND       PRES   REMARKS
SAVANNAH ARPT  CLOUDY    54  43  66 W14       29.79F
HUNTER AAF     MOCLDY    53  45  72 W16       29.77F
FORT STEWART   CLOUDY    54  45  71 W14       29.80F
STATESBORO     NOT AVBL
SYLVANIA       CLOUDY    55  42  61 NW16G25   29.80S
CLAXTON        CLOUDY    50  32  50 W21G32    29.84R
THOMSON        CLOUDY    45  36  71 W12G24    29.85F
AUGUSTA-BUSH   CLOUDY    47  33  58 W17G25    29.79S
AUGUSTA-DANIEL LGT RAIN  45  33  63 W13G25    29.79S
SWAINSBORO     FAIR      45  32  61 NW18G26   29.87S
VIDALIA        MOCLDY    45  30  57 W14G29    29.89R
ALMA           CLOUDY    50  33  52 NW20G35   29.89R
WAYCROSS       CLOUDY    56  42  58 NW20G29   29.88R
JESUP          CLOUDY    54  43  66 NW15G33   29.86R
BRUNSWICK      MOCLDY    52  45  76 W7        29.84S
SAINT SIMONS   CLEAR     54  44  69 W8G20     29.83S

$$

SCZ027-028-034-036>038-045-046-048>050-GAZ119-141-010900-
...LAKE AND SUPPLEMENTAL COASTAL OBSERVATIONS...

STATION/POSITION TIME  TEMP    WIND        PRES    WAVE   SWELL
                       AIR SEA DIR/SP/G            HT/PER HT/PER/DIR
                 (UTC) (F)     (DEG/KT/KT) (MB)    (FT/S) (FT/S/D)
UPR LAKE MARION  NOT AVBL
WINYAH BAY       0800   53     260/  5     1005.0S
LAKE MURRAY      0700   51     300/  4/  6 1006.1F
ACE BASIN NERRS  0800   52     290/  3     1007.0S
FORT PULASKI     0800   56     280/ 18/ 22 1008.5F
SAPELO ISLAND    NOT AVBL

$$

ANZ835-935-AMZ111-154-330-350-352-354-374-450-454-472-010900-
...C-MAN AND BUOY OBSERVATIONS...

STATION/POSITION TIME  TEMP    WIND        PRES    WAVE   SWELL
                       AIR SEA DIR/SP/G            HT/PER HT/PER/DIR
                 (UTC) (F)     (DEG/KT/KT) (MB)    (FT/S) (FT/S/D)
FOLLY BEACH CMAN 0800   54     270/  9/ 14 1006.9F
BUOY 41004       0800   64 76  280/ 10/ 17 1005.1F   3/ 7   3/ 7
BUOY 41008       0800   60 74  310/ 23/ 29 1008.2F   4/ 4   2/ 70/ 9
5E ST. MARYS GA  0700      75                N/A     4/ 4
FRYING PAN BUOY  0800   63 73   CALM  /  2 1005.8F   3/ 7   3/ 70/ 7
BUOY 41025       0800   60     330/ 17/ 21 1004.2R   5/ 5   2/ 60/ 9
CAPE LOOKOUT NC  0800   55      10/  8/ 10 1005.3F
BUOY 41002       0652   71 77  300/ 14/ 17 1003.8    4/ 9   3/100/ 9
BUOY 41010       0800   75 82  280/ 21/ 25 1007.9F   5/ 6   2/110/ 9
BUOY 41012       NOT AVBL
ST AUGUSTINE FL  0800   57     310/  9/ 10 1011.4F
CAPERS NEARSHORE 0700   59     280/ 17/ 21   N/A
FRIPP NEARSHORE  NOT AVBL


$$



USA.gov is the U.S. government's official web portal to all federal, state and local government web resources and services.